Location: Columbia
(38.9520°N, 92.3340°W)
Time: 02:03:37
(UTC-06:00)

Cosmos 1603 - Visible Passes

Search period start: 05 March 2015 00:00
Search period end: 15 March 2015 01:00
Orbit: 832 x 859 km, 71.0° (Epoch: 03 March)

Date Brightness Start Highest point End Pass type
(mag) Time Alt. Az. Time Alt. Az. Time Alt. Az.
05 Mar 6.7 18:56:34 10° NW 18:57:35 10° NW 18:58:18 10° NW visible
06 Mar 6.6 18:42:18 10° WNW 18:43:42 11° NW 18:44:47 10° NNW visible
07 Mar 6.5 18:28:08 10° WNW 18:29:49 11° NW 18:31:11 10° NNW visible
